シューメーカー-レヴィ第8彗星

135P/Shoemaker-Levy 8 (2007)

English version
Home page
Updated on August 10, 2007

---------------------------------------------------------------------

・ プロフィール

・ 軌道要素

The following orbital elements are taken from MPC 51822:

Epoch 2007 May 20.0 TT = JDT 2454240.5
T 2007 May 30.9961 TT                                   MPC
q   2.711246             (2000.0)            P               Q
n   0.1317750      Peri.   22.3170      -0.5659152      +0.8224278
a   3.824553       Node   213.2979      -0.7714681      -0.5530037
e   0.291095       Incl.    6.0541      -0.2908213      -0.1334143
P   7.48
From 80 observations 1992-1999, mean residual 0".8.

・ 星図

・ 光度変化

        m1 = 10.0 + 5 logΔ + 17.5 log r

---------------------------------------------------------------------

軌道要素はMPCのEphemerides and Orbital Elementsに掲載されたものです。
星図は StellaNavigator Ver.2.0 for Windows (アストロアーツ 編著 / アスキー出版局刊) で作成したものです。
光度グラフはComet for Windowsで作成したものです。

---------------------------------------------------------------------

Copyright(C) Seiichi Yoshida (comet@aerith.net). All rights reserved.